Flag for Norway Weather past 2 weeks in Ålesund, Norway

Now
41 °F

Drizzle. Broken clouds.


Feels Like: 34 °F
Forecast: 38 / 47 °F
Wind: 13 mph from West

Location: Alesund / Vigra


UV Index: 0 (Low)

Visibility: N/A


Pressure: 29.45 "Hg

Humidity: 87%

Dew point: 37 °F

Location of ÅlesundLocation

Historic Weather in Ålesund

°F

Ålesund temperature yesterday

Maximum temperature yesterday: 52 °F (at 12:50 PM)
Minimum temperature yesterday: 43 °F (at 12:50 AM)
Average temperature yesterday: 47 °F

Past Weeks' High & Low Weather Summary

 TemperatureHumidityPressure
High54 °F (Apr 4, 3:50 PM)100% (Apr 7, 5:20 AM)30.30 "Hg (Apr 7, 5:20 AM)
Low34 °F (Apr 4, 3:20 AM)35% (Apr 4, 2:50 PM)29.00 "Hg (Apr 13, 2:50 AM)
Average44 °F76%29.74 "Hg
* Reported Apr 2 2:20 PM — Apr 17 2:20 PM, Ålesund, Weather by CustomWeather, © 2014

Note: Actual official high and low records may vary slightly from our data, if they occured in-between our weather recording intervals... More about our weather records

Advertising

Historic Weather Conditions — Data for Previous 24 hours

 ConditionsComfort  
Time TempWeatherWind HumidityBarometerVisibility
2:20 PM
Apr 17
41 °FDrizzle. Broken clouds.14 mph87%29.45 "HgN/A
1:50 PM41 °FBroken clouds.14 mph93%29.42 "HgN/A
1:20 PM41 °FDrizzle. Broken clouds.14 mph93%29.42 "HgN/A
12:50 PM41 °FDrizzle. Partly sunny.13 mph93%29.42 "HgN/A
12:20 PM41 °FDrizzle. Partly sunny.15 mph93%29.42 "HgN/A
11:50 AM41 °FLight rain. Partly sunny.17 mph87%29.42 "HgN/A
11:20 AM43 °FPartly sunny.22 mph81%29.42 "HgN/A
10:50 AM43 °FDrizzle. Partly sunny.23 mph81%29.42 "HgN/A
10:20 AM46 °FPartly sunny.18 mph66%29.42 "HgN/A
9:50 AM46 °FPartly sunny.14 mph66%29.42 "HgN/A
9:20 AM45 °FDrizzle. Partly sunny.13 mph71%29.42 "HgN/A
8:50 AM45 °FDrizzle. Partly sunny.12 mph71%29.45 "HgN/A
8:20 AM46 °FDrizzle. Partly sunny.13 mph66%29.45 "HgN/A
7:50 AM46 °FDrizzle. Partly sunny.13 mph66%29.47 "HgN/A
7:20 AM46 °FScattered showers. Partly sunny.15 mph66%29.47 "HgN/A
6:50 AM46 °FScattered showers. Passing clouds.13 mph66%29.50 "HgN/A
6:20 AM46 °FScattered showers. Passing clouds.12 mph66%29.50 "HgN/A
5:50 AM46 °FPassing clouds.12 mph71%29.53 "HgN/A
5:20 AM45 °FScattered showers. Passing clouds.14 mph71%29.53 "HgN/A
4:50 AM46 °FMostly cloudy.15 mph71%29.59 "HgN/A
4:20 AM46 °FPassing clouds.17 mph71%29.62 "HgN/A
3:50 AM45 °FPassing clouds.17 mph76%29.65 "HgN/A
3:20 AM45 °FLight rain. Overcast.18 mph76%29.65 "HgN/A
2:50 AM46 °FDrizzle. Overcast.17 mph71%29.68 "HgN/A
2:20 AM45 °FMostly cloudy.17 mph76%29.71 "HgN/A
1:50 AM46 °FDrizzle. Mostly cloudy.16 mph71%29.71 "HgN/A
1:20 AM46 °FDrizzle. Fog.20 mph71%29.74 "HgN/A
12:50 AM46 °FPassing clouds.17 mph71%29.74 "HgN/A
12:20 AM46 °FDrizzle. Mostly cloudy.16 mph71%29.77 "HgN/A
11:50 PM
Apr 16
46 °FPassing clouds.16 mph76%29.77 "HgN/A
11:20 PM46 °FDrizzle. Mostly cloudy.16 mph76%29.80 "HgN/A
10:50 PM46 °FLight rain. Passing clouds.15 mph76%29.80 "HgN/A
10:20 PM46 °FLight rain. Passing clouds.16 mph76%29.83 "HgN/A
9:50 PM46 °FDrizzle. Partly sunny.16 mph76%29.83 "HgN/A
9:20 PM46 °FDrizzle. Partly sunny.17 mph76%29.86 "HgN/A
8:50 PM46 °FPartly sunny.17 mph76%29.86 "HgN/A
8:20 PM46 °FDrizzle. Mostly cloudy.17 mph76%29.86 "HgN/A
7:50 PM46 °FLight rain. Mostly cloudy.18 mph76%29.86 "HgN/A
7:20 PM46 °FDrizzle. Partly sunny.16 mph76%29.89 "HgN/A
6:50 PM46 °FDrizzle. Partly sunny.16 mph82%29.89 "HgN/A
6:20 PM46 °FLight rain. Partly sunny.17 mph82%29.89 "HgN/A
5:50 PM46 °FDrizzle. Partly sunny.16 mph82%29.92 "HgN/A
5:20 PM48 °FLight rain. Partly sunny.16 mph71%29.92 "HgN/A
4:50 PM46 °FDrizzle. Partly sunny.16 mph76%29.92 "HgN/A
4:20 PM46 °FDrizzle. Partly sunny.17 mph82%29.92 "HgN/A
3:50 PM48 °FDrizzle. Partly sunny.15 mph71%29.95 "HgN/A
3:20 PM48 °FDrizzle. Partly sunny.17 mph71%29.95 "HgN/A
Weather by CustomWeather, © 2014

See weather overview